Location: Fort Worth, Tx
(32.7431°N, 97.3695°W)
Time: 16:49:08
(UTC-04:00)

Transit 4A - Pass Details

Date: 04 March 2024
Orbit: 871 x 972 km, 66.8° (Epoch: 21 April)

Event Time Altitude Azimuth Distance (km) Brightness Sun altitude
Rises 01:36:21 0° 236° (WSW) 3,608 - -63.5°
Reaches altitude 10° 01:39:20 10° 249° (WSW) 2,651 - -63.5°
Maximum altitude 01:44:26 27° 305° (NW) 1,715 - -63.5°
Drops below altitude 10° 01:49:28 10° 1° (N) 2,601 - -63.4°
Sets 01:52:23 0° 14° (NNE) 3,529 - -63.3°
